TimeCST,TemperatureF,Dew PointF,Humidity,Sea Level PressureIn,VisibilityMPH,Wind Direction,Wind SpeedMPH,Gust SpeedMPH,PrecipitationIn,Events,Conditions,WindDirDegrees,DateUTC
12:18 AM,59.0,57.2,94,30.00,8.0,SSE,15.0,-,N/A,,Overcast,150,2013-11-05 06:18:00
12:58 AM,59.0,57.2,94,29.99,9.0,SSE,13.8,-,N/A,,Overcast,150,2013-11-05 06:58:00
1:08 AM,59.0,57.2,94,29.99,9.0,SSE,15.0,-,N/A,,Overcast,160,2013-11-05 07:08:00
1:23 AM,59.0,57.2,94,29.99,10.0,SSE,16.1,-,N/A,,Overcast,160,2013-11-05 07:23:00
1:28 AM,59.0,57.2,94,29.99,10.0,SSE,12.7,-,N/A,,Overcast,160,2013-11-05 07:28:00
1:43 AM,59.0,57.2,94,29.99,10.0,South,15.0,-,N/A,,Overcast,170,2013-11-05 07:43:00
1:58 AM,59.9,57.6,92,29.98,10.0,South,15.0,-,N/A,,Overcast,170,2013-11-05 07:58:00
2:03 AM,59.0,57.2,94,29.99,10.0,South,13.8,-,N/A,,Overcast,170,2013-11-05 08:03:00
2:07 AM,59.0,57.2,94,29.99,10.0,South,12.7,-,N/A,,Overcast,180,2013-11-05 08:07:00
2:22 AM,59.0,59.0,100,29.99,10.0,South,12.7,-,N/A,,Overcast,170,2013-11-05 08:22:00
2:58 AM,59.9,58.5,95,29.98,10.0,SSE,12.7,-,N/A,,Overcast,160,2013-11-05 08:58:00
3:03 AM,60.8,59.0,94,29.98,10.0,South,12.7,-,N/A,,Overcast,170,2013-11-05 09:03:00
3:23 AM,60.8,59.0,94,29.98,10.0,South,12.7,-,N/A,,Overcast,170,2013-11-05 09:23:00
3:58 AM,59.9,57.9,93,29.96,10.0,SSE,11.5,-,N/A,,Overcast,150,2013-11-05 09:58:00
4:12 AM,59.0,57.2,94,29.97,10.0,SSE,12.7,-,N/A,,Overcast,150,2013-11-05 10:12:00
4:58 AM,59.5,57.9,94,29.96,10.0,SSE,12.7,-,N/A,,Overcast,160,2013-11-05 10:58:00
5:28 AM,59.0,57.2,94,29.96,8.0,SSE,10.4,-,N/A,,Overcast,150,2013-11-05 11:28:00
5:43 AM,59.0,57.2,94,29.96,9.0,SSE,12.7,-,N/A,,Overcast,160,2013-11-05 11:43:00
5:58 AM,59.2,58.3,97,29.95,10.0,SSE,12.7,-,N/A,,Overcast,150,2013-11-05 11:58:00
6:33 AM,59.0,59.0,100,29.96,8.0,SSE,12.7,-,N/A,,Overcast,150,2013-11-05 12:33:00
6:58 AM,59.4,59.0,99,29.95,5.0,SSE,11.5,-,N/A,,Overcast,160,2013-11-05 12:58:00
7:15 AM,59.0,59.0,100,29.96,4.0,SSE,12.7,-,N/A,Rain,Light Rain,150,2013-11-05 13:15:00
7:24 AM,59.0,59.0,100,29.96,4.0,SSE,12.7,-,N/A,,Overcast,150,2013-11-05 13:24:00
7:58 AM,59.9,59.9,100,29.96,5.0,SSE,11.5,-,0.00,,Overcast,150,2013-11-05 13:58:00
8:06 AM,60.8,60.8,100,29.98,6.0,SSE,12.7,-,N/A,,Light Drizzle,160,2013-11-05 14:06:00
8:11 AM,60.8,60.8,100,29.98,6.0,SSE,12.7,-,N/A,,Light Drizzle,150,2013-11-05 14:11:00
8:15 AM,60.8,60.8,100,29.98,6.0,SSE,10.4,-,N/A,,Overcast,160,2013-11-05 14:15:00
8:25 AM,60.8,60.8,100,29.98,6.0,SSE,11.5,-,N/A,Rain,Light Rain,160,2013-11-05 14:25:00
8:52 AM,60.8,60.8,100,29.98,5.0,SSE,13.8,-,N/A,,Overcast,160,2013-11-05 14:52:00
8:58 AM,60.6,60.6,100,29.97,7.0,SSE,11.5,-,0.01,,Overcast,160,2013-11-05 14:58:00
9:58 AM,61.5,61.5,100,29.96,7.0,SSE,16.1,-,N/A,,Overcast,160,2013-11-05 15:58:00
10:07 AM,62.6,62.6,100,29.97,8.0,South,15.0,-,N/A,,Light Drizzle,170,2013-11-05 16:07:00
10:14 AM,62.6,62.6,100,29.97,8.0,South,13.8,20.7,N/A,,Overcast,170,2013-11-05 16:14:00
10:58 AM,62.4,62.4,100,29.95,10.0,South,12.7,-,0.00,,Overcast,180,2013-11-05 16:58:00
11:43 AM,64.4,62.6,94,29.94,10.0,South,13.8,-,N/A,,Overcast,180,2013-11-05 17:43:00
11:58 AM,64.0,63.1,97,29.93,10.0,South,15.0,-,N/A,,Overcast,170,2013-11-05 17:58:00
12:08 PM,64.4,62.6,94,29.93,10.0,South,13.8,-,N/A,,Overcast,180,2013-11-05 18:08:00
12:33 PM,64.4,62.6,94,29.92,10.0,South,17.3,21.9,N/A,,Overcast,170,2013-11-05 18:33:00
12:58 PM,65.7,63.1,92,29.90,10.0,South,11.5,-,N/A,,Overcast,180,2013-11-05 18:58:00
1:18 PM,66.2,62.6,88,29.90,10.0,South,12.7,-,N/A,,Overcast,170,2013-11-05 19:18:00
1:58 PM,66.9,63.7,89,29.87,9.0,SSE,15.0,-,N/A,,Overcast,160,2013-11-05 19:58:00
2:03 PM,68.0,64.4,88,29.88,9.0,South,12.7,-,N/A,,Overcast,170,2013-11-05 20:03:00
2:23 PM,68.0,64.4,88,29.87,10.0,South,15.0,-,N/A,,Overcast,170,2013-11-05 20:23:00
2:53 PM,69.8,64.4,83,29.87,10.0,SSE,16.1,-,N/A,,Overcast,160,2013-11-05 20:53:00
2:58 PM,69.1,64.2,84,29.86,10.0,South,12.7,-,N/A,,Overcast,170,2013-11-05 20:58:00
3:18 PM,68.0,64.4,88,29.87,10.0,SSE,15.0,-,N/A,,Overcast,160,2013-11-05 21:18:00
3:58 PM,69.8,64.4,83,29.85,10.0,South,17.3,23.0,N/A,,Mostly Cloudy,170,2013-11-05 21:58:00
4:03 PM,69.8,62.6,78,29.86,10.0,South,18.4,-,N/A,,Mostly Cloudy,170,2013-11-05 22:03:00
4:18 PM,68.0,64.4,88,29.86,10.0,South,17.3,-,N/A,,Mostly Cloudy,170,2013-11-05 22:18:00
4:43 PM,68.0,62.6,83,29.86,10.0,South,20.7,24.2,N/A,,Overcast,170,2013-11-05 22:43:00
4:48 PM,68.0,62.6,83,29.86,10.0,SSE,15.0,24.2,N/A,,Overcast,160,2013-11-05 22:48:00
4:58 PM,67.1,63.5,88,29.86,10.0,SSE,13.8,23.0,N/A,,Overcast,160,2013-11-05 22:58:00
5:08 PM,66.2,64.4,94,29.86,10.0,South,17.3,-,N/A,,Overcast,170,2013-11-05 23:08:00
5:58 PM,66.2,64.0,93,29.85,10.0,South,13.8,-,N/A,,Overcast,170,2013-11-05 23:58:00
6:03 PM,66.2,64.4,94,29.86,10.0,SSE,11.5,-,N/A,,Overcast,160,2013-11-06 00:03:00
6:29 PM,66.2,64.4,94,29.87,10.0,South,15.0,20.7,N/A,,Overcast,170,2013-11-06 00:29:00
6:54 PM,66.2,64.4,94,29.88,10.0,South,11.5,-,N/A,Thunderstorm,Overcast,180,2013-11-06 00:54:00
6:58 PM,65.8,64.0,94,29.87,10.0,South,11.5,-,N/A,Thunderstorm,Overcast,180,2013-11-06 00:58:00
7:00 PM,66.2,64.4,94,29.88,10.0,South,10.4,-,N/A,Thunderstorm,Thunderstorm,170,2013-11-06 01:00:00
7:06 PM,66.2,64.4,94,29.89,10.0,South,10.4,-,N/A,Rain-Thunderstorm,Light Thunderstorms and Rain,190,2013-11-06 01:06:00
7:15 PM,66.2,64.4,94,29.90,6.0,SW,11.5,-,N/A,Rain,Light Rain,220,2013-11-06 01:15:00
7:16 PM,66.2,64.4,94,29.90,6.0,SSW,12.7,-,N/A,Rain,Light Rain,210,2013-11-06 01:16:00
7:21 PM,66.2,64.4,94,29.89,2.5,South,15.0,-,N/A,Rain-Thunderstorm,Heavy Rain,170,2013-11-06 01:21:00
7:26 PM,66.2,64.4,94,29.89,2.0,South,12.7,-,N/A,Rain-Thunderstorm,Rain,190,2013-11-06 01:26:00
7:31 PM,66.2,64.4,94,29.89,4.0,South,13.8,-,N/A,Rain-Thunderstorm,Light Rain,180,2013-11-06 01:31:00
7:41 PM,64.4,64.4,100,29.87,6.0,SSE,12.7,-,N/A,Rain,Light Rain,160,2013-11-06 01:41:00
7:56 PM,64.4,64.4,100,29.88,8.0,South,12.7,-,N/A,,Light Drizzle,170,2013-11-06 01:56:00
7:58 PM,64.9,64.4,98,29.87,9.0,South,12.7,-,0.26,,Light Drizzle,170,2013-11-06 01:58:00
7:59 PM,64.4,64.4,100,29.88,10.0,South,12.7,-,N/A,,Overcast,170,2013-11-06 01:59:00
8:09 PM,64.4,64.4,100,29.88,10.0,South,13.8,-,N/A,,Overcast,170,2013-11-06 02:09:00
8:29 PM,64.4,64.4,100,29.89,9.0,South,11.5,-,N/A,,Overcast,170,2013-11-06 02:29:00
8:50 PM,64.4,64.4,100,29.91,10.0,South,13.8,20.7,N/A,,Overcast,180,2013-11-06 02:50:00
8:58 PM,65.1,64.6,98,29.90,10.0,South,12.7,19.6,0.00,,Overcast,180,2013-11-06 02:58:00
9:48 PM,64.4,64.4,100,29.93,10.0,SSW,8.1,-,N/A,,Overcast,200,2013-11-06 03:48:00
9:58 PM,65.1,64.6,98,29.94,10.0,Variable,5.8,-,N/A,,Overcast,0,2013-11-06 03:58:00
10:06 PM,59.0,57.2,94,29.97,5.0,NNW,17.3,28.8,N/A,,Overcast,340,2013-11-06 04:06:00
10:11 PM,57.2,55.4,94,29.98,4.0,NNW,17.3,28.8,N/A,,Light Drizzle,340,2013-11-06 04:11:00
10:13 PM,55.4,53.6,94,29.98,4.0,North,17.3,24.2,N/A,Rain,Light Rain,360,2013-11-06 04:13:00
10:36 PM,53.6,51.8,94,30.00,3.0,North,20.7,28.8,N/A,Rain,Heavy Rain,350,2013-11-06 04:36:00
10:41 PM,51.8,50.0,94,30.00,3.0,NNW,18.4,28.8,N/A,Rain,Heavy Rain,340,2013-11-06 04:41:00
10:51 PM,51.8,50.0,94,30.00,4.0,NNW,21.9,31.1,N/A,Rain,Light Rain,340,2013-11-06 04:51:00
10:58 PM,51.6,50.0,94,29.99,4.0,North,23.0,32.2,0.12,Rain,Light Rain,360,2013-11-06 04:58:00
11:22 PM,50.0,48.2,94,30.01,6.0,North,17.3,29.9,N/A,,Mostly Cloudy,350,2013-11-06 05:22:00
11:32 PM,50.0,48.2,94,30.00,7.0,North,24.2,34.5,N/A,Rain,Light Rain,360,2013-11-06 05:32:00
11:58 PM,49.3,46.6,90,30.01,10.0,North,26.5,35.7,0.01,Rain,Light Rain,360,2013-11-06 05:58:00